TimeMST,TemperatureF,Dew PointF,Humidity,Sea Level PressureIn,VisibilityMPH,Wind Direction,Wind SpeedMPH,Gust SpeedMPH,PrecipitationIn,Events,Conditions,WindDirDegrees,DateUTC
12:15 AM,44.6,-7.6,11,30.20,10.0,SSE,8.1,-,N/A,,Clear,160,2014-06-04 07:15:00
12:35 AM,44.6,-5.8,12,30.19,10.0,SSE,9.2,-,N/A,,Clear,160,2014-06-04 07:35:00
12:55 AM,42.8,-5.8,13,30.19,10.0,SSE,9.2,-,N/A,,Clear,160,2014-06-04 07:55:00
1:15 AM,42.8,-4.0,14,30.19,10.0,SSE,10.4,-,N/A,,Clear,160,2014-06-04 08:15:00
1:35 AM,41.0,-4.0,15,30.18,10.0,SSE,9.2,-,N/A,,Clear,160,2014-06-04 08:35:00
1:55 AM,41.0,-4.0,15,30.18,10.0,SSE,9.2,-,N/A,,Clear,160,2014-06-04 08:55:00
2:15 AM,39.2,-2.2,17,30.18,10.0,SSE,10.4,-,N/A,,Clear,150,2014-06-04 09:15:00
2:35 AM,39.2,-2.2,17,30.18,10.0,SSE,8.1,-,N/A,,Clear,150,2014-06-04 09:35:00
2:55 AM,39.2,-2.2,17,30.17,10.0,SSE,10.4,-,N/A,,Clear,150,2014-06-04 09:55:00
3:15 AM,39.2,-2.2,17,30.17,10.0,SSE,11.5,-,N/A,,Clear,150,2014-06-04 10:15:00
3:35 AM,39.2,-2.2,17,30.17,10.0,SSE,10.4,-,N/A,,Clear,150,2014-06-04 10:35:00
3:55 AM,37.4,-2.2,19,30.17,10.0,SSE,9.2,-,N/A,,Clear,160,2014-06-04 10:55:00
4:15 AM,37.4,-2.2,19,30.17,10.0,SSE,9.2,-,N/A,,Clear,150,2014-06-04 11:15:00
4:35 AM,37.4,-2.2,19,30.17,10.0,SSE,10.4,-,N/A,,Clear,160,2014-06-04 11:35:00
4:55 AM,35.6,-2.2,20,30.18,10.0,SSE,8.1,-,N/A,,Clear,160,2014-06-04 11:55:00
5:15 AM,35.6,-2.2,20,30.18,10.0,SSE,9.2,-,N/A,,Clear,150,2014-06-04 12:15:00
5:35 AM,35.6,-2.2,20,30.18,10.0,SSE,10.4,-,N/A,,Clear,150,2014-06-04 12:35:00
5:55 AM,37.4,-2.2,19,30.18,10.0,SSE,10.4,-,N/A,,Clear,150,2014-06-04 12:55:00
6:15 AM,39.2,-2.2,17,30.19,10.0,SSE,9.2,-,N/A,,Clear,150,2014-06-04 13:15:00
6:35 AM,46.4,-2.2,13,30.19,10.0,SSE,9.2,-,N/A,,Clear,150,2014-06-04 13:35:00
6:55 AM,51.8,-2.2,11,30.19,10.0,SSE,5.8,-,N/A,,Clear,150,2014-06-04 13:55:00
7:15 AM,55.4,-0.4,10,30.20,10.0,SE,5.8,-,N/A,,Clear,140,2014-06-04 14:15:00
7:35 AM,64.4,1.4,8,30.20,10.0,South,4.6,-,N/A,,Clear,180,2014-06-04 14:35:00
7:55 AM,68.0,-4.0,6,30.20,10.0,SW,9.2,-,N/A,,Clear,230,2014-06-04 14:55:00
8:15 AM,69.8,-5.8,5,30.20,10.0,WSW,10.4,-,N/A,,Clear,240,2014-06-04 15:15:00
8:35 AM,71.6,-5.8,5,30.20,10.0,South,11.5,-,N/A,,Clear,180,2014-06-04 15:35:00
8:55 AM,71.6,-7.6,4,30.20,10.0,SW,10.4,-,N/A,,Clear,230,2014-06-04 15:55:00
9:15 AM,73.4,-11.2,4,30.20,10.0,SW,12.7,19.6,N/A,,Clear,220,2014-06-04 16:15:00
9:35 AM,73.4,-7.6,4,30.20,10.0,South,16.1,21.9,N/A,,Clear,170,2014-06-04 16:35:00
9:55 AM,75.2,-7.6,4,30.20,10.0,South,16.1,23.0,N/A,,Clear,180,2014-06-04 16:55:00
10:15 AM,75.2,-5.8,4,30.20,10.0,South,11.5,27.6,N/A,,Clear,190,2014-06-04 17:15:00
10:35 AM,75.2,-5.8,4,30.20,10.0,SW,15.0,20.7,N/A,,Clear,220,2014-06-04 17:35:00
10:55 AM,75.2,-4.0,4,30.20,10.0,South,16.1,24.2,N/A,,Clear,180,2014-06-04 17:55:00
11:15 AM,75.2,-4.0,4,30.20,10.0,South,18.4,24.2,N/A,,Clear,170,2014-06-04 18:15:00
11:35 AM,75.2,-4.0,4,30.20,10.0,South,17.3,23.0,N/A,,Clear,170,2014-06-04 18:35:00
11:55 AM,77.0,-4.0,4,30.20,10.0,South,15.0,31.1,N/A,,Clear,170,2014-06-04 18:55:00
12:15 PM,78.8,-0.4,5,30.19,10.0,SW,11.5,20.7,N/A,,Clear,220,2014-06-04 19:15:00
12:35 PM,78.8,-0.4,5,30.18,10.0,South,10.4,26.5,N/A,,Clear,170,2014-06-04 19:35:00
12:55 PM,80.6,-0.4,4,30.18,10.0,SSW,13.8,27.6,N/A,,Clear,200,2014-06-04 19:55:00
1:15 PM,78.8,-4.0,4,30.18,10.0,SSW,15.0,19.6,N/A,,Clear,210,2014-06-04 20:15:00
1:35 PM,80.6,-4.0,4,30.17,10.0,SSW,15.0,24.2,N/A,,Clear,200,2014-06-04 20:35:00
1:55 PM,80.6,-5.8,4,30.17,10.0,SW,10.4,23.0,N/A,,Clear,230,2014-06-04 20:55:00
2:15 PM,80.6,-7.6,4,30.17,10.0,SW,15.0,26.5,N/A,,Clear,220,2014-06-04 21:15:00
2:35 PM,80.6,-7.6,4,30.16,10.0,SSW,17.3,25.3,N/A,,Clear,200,2014-06-04 21:35:00
2:55 PM,80.6,-11.2,4,30.16,10.0,SSW,16.1,25.3,N/A,,Clear,200,2014-06-04 21:55:00
3:15 PM,80.6,-14.8,4,30.16,10.0,South,13.8,20.7,N/A,,Clear,180,2014-06-04 22:15:00
3:35 PM,80.6,-14.8,4,30.16,10.0,South,19.6,23.0,N/A,,Clear,190,2014-06-04 22:35:00
3:55 PM,80.6,-18.4,4,30.15,10.0,SSW,10.4,24.2,N/A,,Clear,210,2014-06-04 22:55:00
4:15 PM,80.6,-14.8,4,30.15,10.0,South,15.0,19.6,N/A,,Clear,190,2014-06-04 23:15:00
4:35 PM,78.8,-14.8,4,30.15,10.0,South,17.3,20.7,N/A,,Clear,180,2014-06-04 23:35:00
4:55 PM,77.0,-16.6,4,30.15,10.0,SSW,12.7,19.6,N/A,,Clear,210,2014-06-04 23:55:00
5:15 PM,77.0,-13.0,4,30.15,10.0,SSW,12.7,19.6,N/A,,Clear,210,2014-06-05 00:15:00
5:35 PM,77.0,-14.8,4,30.15,10.0,SSW,11.5,-,N/A,,Clear,200,2014-06-05 00:35:00
5:55 PM,75.2,-13.0,4,30.15,10.0,SSW,12.7,16.1,N/A,,Clear,200,2014-06-05 00:55:00
6:15 PM,75.2,-14.8,4,30.14,10.0,South,13.8,17.3,N/A,,Clear,180,2014-06-05 01:15:00
6:35 PM,73.4,-14.8,4,30.15,10.0,SSW,6.9,-,N/A,,Clear,200,2014-06-05 01:35:00
6:55 PM,73.4,-14.8,4,30.15,10.0,South,8.1,-,N/A,,Clear,170,2014-06-05 01:55:00
7:15 PM,73.4,-14.8,4,30.15,10.0,South,10.4,-,N/A,,Clear,180,2014-06-05 02:15:00
7:35 PM,71.6,-13.0,4,30.16,10.0,South,9.2,-,N/A,,Clear,180,2014-06-05 02:35:00
7:55 PM,68.0,-14.8,4,30.15,10.0,South,9.2,-,N/A,,Clear,190,2014-06-05 02:55:00
8:15 PM,68.0,-13.0,4,30.16,10.0,South,6.9,-,N/A,,Clear,190,2014-06-05 03:15:00
8:35 PM,64.4,-13.0,4,30.16,10.0,South,8.1,-,N/A,,Clear,180,2014-06-05 03:35:00
8:55 PM,66.2,-13.0,4,30.16,10.0,SSW,6.9,-,N/A,,Clear,210,2014-06-05 03:55:00
9:15 PM,64.4,-11.2,5,30.17,10.0,South,6.9,-,N/A,,Clear,190,2014-06-05 04:15:00
9:35 PM,64.4,-11.2,5,30.17,10.0,South,9.2,-,N/A,,Clear,180,2014-06-05 04:35:00
9:55 PM,64.4,-11.2,5,30.17,10.0,SSW,6.9,-,N/A,,Clear,200,2014-06-05 04:55:00
10:15 PM,64.4,-9.4,5,30.18,10.0,SSW,6.9,-,N/A,,Clear,200,2014-06-05 05:15:00
10:35 PM,55.4,-7.6,7,30.18,10.0,SE,5.8,-,N/A,,Clear,130,2014-06-05 05:35:00
10:55 PM,55.4,-7.6,7,30.18,10.0,SSE,5.8,-,N/A,,Clear,150,2014-06-05 05:55:00
11:15 PM,51.8,-5.8,9,30.18,10.0,SSE,6.9,-,N/A,,Clear,150,2014-06-05 06:15:00
11:35 PM,53.6,-5.8,9,30.18,10.0,East,3.5,-,N/A,,Clear,100,2014-06-05 06:35:00
11:55 PM,57.2,-4.0,8,30.18,10.0,ENE,3.5,-,N/A,,Clear,70,2014-06-05 06:55:00